Regional Weather Roundup
Issued by NWS

Home | Current Version | Previous Version | Text Only | Print | Product List | Glossary Off
Versions: 1 2 3 4 5 6 7 8 9 10 11 12 13 14 15 16 17 18 19 20 21 22 23 24 25 26 27 28 29 30 31 32 33 34 35 36 37 38 39 40 41 42 43 44 45 46 47 48 49 50

000
ASUS43 KOAX 181602
RWRNE

WEATHER ROUNDUP FOR NEBRASKA
NATIONAL WEATHER SERVICE OMAHA NE
1000 AM CST THU DEC 18 2014

NOTES: SATELLITE DATA IS BEING USED TO AUGMENT CLOUD COVER ABOVE
       12000 FEET.
       "FAIR" INDICATES FEW OR NO CLOUDS BELOW 12,000 FEET WITH NO
       SIGNIFICANT WEATHER AND/OR OBSTRUCTIONS TO VISIBILITY.

  * THESE STATIONS DO NOT REPORT WEATHER SUCH AS RAIN...SNOW OR FOG.

NEZ001>004-019>022-054>056-181700-
NEBRASKA PANHANDLE

CITY           SKY/WX    TMP DP  RH WIND       PRES   REMARKS
SCOTTSBLUFF    CLOUDY     7   4  87 W6        30.06S FOG     WCI  -3
ALLIANCE       MOSUNNY    6   3  87 SW5       30.03R WCI  -3
CHADRON        SUNNY     10   6  84 SW8       30.05S WCI  -2
SIDNEY         MOSUNNY   21  17  84 W10       30.04R WCI  10
$$

NEZ057>060-069>072-079>082-181700-
SOUTHWEST NEBRASKA

CITY           SKY/WX    TMP DP  RH WIND       PRES   REMARKS
NORTH PLATTE   CLOUDY    26  23  88 SW7       30.11S WCI  18
IMPERIAL       CLOUDY    25  23  92 W7        30.10R FOG     WCI  17
MCCOOK         CLOUDY    24  22  91 SW5       30.14R WCI  18
$$

NEZ005>010-023>029-035>040-094-181700-
NORTH CENTRAL NEBRASKA

CITY           SKY/WX    TMP DP  RH WIND       PRES   REMARKS
VALENTINE      CLOUDY    26  22  84 SW5       30.08R WCI  20
BROKEN BOW     CLOUDY    25  24  96 S8        30.13R FOG     WCI  16
ORD            CLOUDY    24  21  88 SE6       30.16R FOG     WCI  17
$$

NEZ041-046>049-061>064-073>077-083>087-181700-
SOUTH CENTRAL NEBRASKA

CITY           SKY/WX    TMP DP  RH WIND       PRES   REMARKS
GRAND ISLAND   CLOUDY    24  22  91 S5        30.20S WCI  18
HASTINGS       CLOUDY    25  22  88 S5        30.18R WCI  19
KEARNEY *      CLOUDY    25  21  86 SE6       30.17S WCI  18
$$

NEZ011>018-030>034-042>045-181700-
NORTHEAST NEBRASKA

CITY           SKY/WX    TMP DP  RH WIND       PRES   REMARKS
NORFOLK        CLOUDY    27  22  81 S7        30.21R WCI  19
BLAIR          LGT SNOW  28  25  87 E6        30.23S WCI  22
COLUMBUS *     CLOUDY    25  19  80 SE6       30.23S WCI  18
TEKAMAH        CLOUDY    28  23  81 SE8       30.26R WCI  20
$$

NEZ050>053-065>068-078-088>093-181700-
SOUTHEAST NEBRASKA

CITY           SKY/WX    TMP DP  RH WIND       PRES   REMARKS
LINCOLN        CLOUDY    28  25  88 S5        30.26R FOG     WCI  23
OMAHA EPPLEY   LGT SNOW  27  24  89 SE6       30.27R FOG     WCI  20
FALLS CITY     LGT SNOW  28  25  88 E5        30.26R FOG     WCI  23
$$

NEZ044-045-051>053-067-181700-
OMAHA AREA

CITY           SKY/WX    TMP DP  RH WIND       PRES   REMARKS
OMAHA EPPLEY   LGT SNOW  27  24  89 SE6       30.27R FOG     WCI  20
BLAIR          LGT SNOW  28  25  87 E6        30.23S WCI  22
OFFUTT AFB     LGT SNOW  28  24  87 E7        30.25S FOG     WCI  21
$$


USA.gov is the U.S. government's official web portal to all federal, state and local government web resources and services.